Regional Weather Roundup
Issued by NWS

Home | Current Version | Previous Version | Graphics & Text | Print | Product List | Glossary Off
Versions: 1 2 3 4 5 6 7 8 9 10 11 12 13 14 15 16 17 18 19 20 21 22 23 24 25 26 27 28 29 30 31 32 33 34 35 36 37 38 39 40 41 42 43 44 45 46 47 48 49 50

000
ASUS43 KTOP 200508
RWRKS

WEATHER ROUNDUP FOR KANSAS
NATIONAL WEATHER SERVICE GOODLAND KS
1100 PM CST FRI DEC 19 2014

NOTE:  "FAIR" INDICATES FEW OR NO CLOUDS BELOW 12,000 FEET WITH NO
SIGNIFICANT WEATHER AND/OR OBSTRUCTIONS TO VISIBILITY.

KSZ001>006-013>018-027>032-041>047-200600-
NORTHWEST KANSAS

CITY           SKY/WX    TMP DP  RH WIND       PRES   REMARKS
GOODLAND       PTCLDY    33  28  81 SW12      30.05F WCI  24
HAYS           CLEAR     34  25  69 W7        30.09R
HILL CITY      CLEAR     38  30  73 SW12      30.06F WCI  30
RUSSELL        CLOUDY    35  33  92 S10       30.08S WCI  27
$$

KSZ061>065-074>080-084>089-200600-
SOUTHWEST KANSAS

CITY           SKY/WX    TMP DP  RH WIND       PRES   REMARKS
DODGE CITY     CLEAR     32  29  88 SW8       30.11R FOG
ELKHART          N/A    N/A N/A N/A MISG        N/A
GARDEN CITY    CLEAR     28  27  96 SW7       30.10S FOG
GREAT BEND     CLEAR     30  27  86 SW6       30.13R
LIBERAL        FAIR      30  27  86 SW9       30.14R
PRATT          CLEAR     32  30  93 S7        30.14R FOG
$$

KSZ066>073-081>083-090>101-200600-
SOUTHEAST KANSAS

CITY           SKY/WX    TMP DP  RH WIND       PRES   REMARKS
CHANUTE        CLOUDY    34  34 100 CALM      30.22S FOG
COFFEYVILLE    CLOUDY    36  36 100 CALM      30.23R FOG
HUTCHINSON     CLEAR     33  30  88 S5        30.14F FOG
MEDICINE LODGE   N/A     35  34  96 S8        30.15S
NEWTON         CLOUDY    36  30  80 S8        30.16F
PARSONS        FOG       36  36 100 NW3       30.23S VSB 1/2
WICHITA INTL   CLOUDY    38  34  85 S8        30.16F
WICHITA JABRA  CLOUDY    36  33  89 S5        30.16F
WICHITA MCCONL CLOUDY    37  34  89 S6        30.17F
WINFIELD       CLOUDY    37  34  89 S6        30.20F
$$

KSZ007>012-019>026-033>040-048>060-102>105-200600-
NORTHEAST KANSAS

CITY           SKY/WX    TMP DP  RH WIND       PRES   REMARKS
CONCORDIA      CLEAR     32  31  96 S9        30.09F FOG
EMPORIA        CLOUDY    33  30  88 S6        30.19S
LAWRENCE       CLOUDY    33  28  81 SW8       30.22R
MANHATTAN      CLOUDY    35  32  88 S5        30.16S
MARYSVILLE     CLOUDY    32  32 100 SE10      30.13F WCI  24
OLATHE IND     CLOUDY    32  32 100 SW5       30.21R FOG
OLATHE EXE     CLOUDY    33  33 100 W3        30.20R FOG
SALINA         CLEAR     32  30  92 S9        30.13F FOG
TOPEKA BILLARD CLOUDY    34  29  82 SW5       30.22R
TOPEKA FORBES  CLOUDY    34  28  79 SW7       30.20R
$$



USA.gov is the U.S. government's official web portal to all federal, state and local government web resources and services.